Weather History for Washington, PA

Change the Weather History Date:

Thursday, December 6, 2012

  Actual Average Record
Temperature  
Mean Temperature 32 °F -  
Max Temperature 46 °F 42 °F 71 °F (1998)
Min Temperature 17 °F 27 °F 0 °F (2007)
Degree Days  
Heating Degree Days 34    
Moisture  
Dew Point 23 °F    
Average Humidity 78    
Maximum Humidity 100    
Minimum Humidity 43    
Precipitation  
Precipitation 0.00 in - - ()
Sea Level Pressure  
Sea Level Pressure 30.19 in    
Wind  
Wind Speed 1 mph (East)    
Max Wind Speed 7 mph    
Max Gust Speed -    
Visibility 10 miles    
Events      
Averages and records for this station are not official NWS values.
T = Trace of Precipitation, MM = Missing Value Source: NWS Daily Summary

Daily Weather History Graph

Daily Weather History Graph

Search for Another Location

Airport:

Trip Planner

Search our weather history database for the weather conditions in past years. The results will help you decide how hot, cold, wet, or windy it might be!

Date:

Astronomy

Dec. 06, 2012 Rise Set
Actual Time 7:29 AM EST 4:55 PM EST
Civil Twilight 6:59 AM EST 5:25 PM EST
Nautical Twilight 6:25 AM EST 5:59 PM EST
Astronomical Twilight 5:52 AM EST 6:32 PM EST
Moon No Moon Rise 12:21 PM EST (12/6)
Length of Visible Light 10h 26m
Length of Day
9h 25m
Waning Gibbous, 49% of the Moon is Illuminated
Dec 6
Waning Gibbous
Dec 13
New
Dec 20
First Quarter
Dec 28
Full
Jan 4
Last Quarter

Hourly Weather History & Observations

Time (EST) Temp. Windchill Dew Point Humidity Pressure Visibility Wind Dir Wind Speed Gust Speed Precip Events Conditions
12:15 AM 21.2 °F - 19.4 °F 93% 30.32 in 10.0 mi Calm Calm - N/A   Clear
12:35 AM 23.0 °F - 21.2 °F 93% 30.32 in 10.0 mi Calm Calm - N/A   Clear
12:55 AM 21.2 °F 16.4 °F 19.4 °F 93% 30.33 in 10.0 mi SSW 3.5 mph - N/A   Clear
1:15 AM 21.2 °F 16.4 °F 19.4 °F 93% 30.33 in 10.0 mi SSW 3.5 mph - N/A   Clear
1:35 AM 21.2 °F - 17.6 °F 86% 30.33 in 10.0 mi Calm Calm - N/A   Clear
1:55 AM 21.2 °F - 17.6 °F 86% 30.33 in 10.0 mi Calm Calm - N/A   Clear
2:15 AM 21.2 °F - 19.4 °F 93% 30.33 in 10.0 mi Calm Calm - N/A   Clear
2:35 AM 19.4 °F - 15.8 °F 86% 30.32 in 10.0 mi Calm Calm - N/A   Clear
2:55 AM 19.4 °F - 17.6 °F 93% 30.32 in 10.0 mi Calm Calm - N/A   Clear
3:15 AM 19.4 °F - 17.6 °F 93% 30.32 in 10.0 mi Calm Calm - N/A   Clear
3:35 AM 19.4 °F - 17.6 °F 93% 30.31 in 10.0 mi Calm Calm - N/A   Clear
3:55 AM 17.6 °F - 15.8 °F 93% 30.31 in 10.0 mi Calm Calm - N/A   Clear
4:15 AM 17.6 °F - 17.6 °F 100% 30.31 in 10.0 mi Calm Calm - N/A   Clear
4:35 AM 19.4 °F - 15.8 °F 86% 30.29 in 10.0 mi Calm Calm - N/A   Clear
4:55 AM 17.6 °F - 17.6 °F 100% 30.29 in 10.0 mi Calm Calm - N/A   Clear
5:15 AM 19.4 °F - 17.6 °F 93% 30.28 in 10.0 mi Calm Calm - N/A   Clear
5:35 AM 17.6 °F - 17.6 °F 100% 30.28 in 10.0 mi Calm Calm - N/A   Clear
5:55 AM 17.6 °F - 15.8 °F 93% 30.28 in 10.0 mi Calm Calm - N/A   Clear
6:15 AM 17.6 °F - 17.6 °F 100% 30.29 in 10.0 mi Calm Calm - N/A   Clear
6:35 AM 19.4 °F - 17.6 °F 93% 30.28 in 10.0 mi Calm Calm - N/A   Clear
6:55 AM 17.6 °F - 15.8 °F 93% 30.28 in 10.0 mi Calm Calm - N/A   Clear
7:15 AM 17.6 °F - 14.0 °F 86% 30.28 in 10.0 mi Calm Calm - N/A   Clear
7:35 AM 19.4 °F - 17.6 °F 93% 30.28 in 10.0 mi Calm Calm - N/A   Clear
7:55 AM 19.4 °F 12.8 °F 17.6 °F 93% 30.28 in 10.0 mi NNE 4.6 mph - N/A   Clear
8:15 AM 24.8 °F 19.1 °F 21.2 °F 86% 30.27 in 10.0 mi NNE 4.6 mph - N/A   Clear
8:35 AM 24.8 °F - 23.0 °F 93% 30.27 in 10.0 mi Calm Calm - N/A   Clear
8:55 AM 26.6 °F 20.0 °F 23.0 °F 86% 30.26 in 10.0 mi ENE 5.8 mph - N/A   Clear
9:15 AM 28.4 °F 21.2 °F 24.8 °F 86% 30.26 in 10.0 mi East 6.9 mph - N/A   Clear
9:35 AM 30.2 °F 23.4 °F 24.8 °F 80% 30.26 in 10.0 mi NE 6.9 mph - N/A   Clear
10:15 AM 32.0 °F 26.4 °F 24.8 °F 75% 30.25 in 10.0 mi East 5.8 mph - N/A   Clear
10:35 AM 33.8 °F 29.6 °F 24.8 °F 70% 30.24 in 10.0 mi ENE 4.6 mph - N/A   Clear
10:55 AM 35.6 °F 31.7 °F 24.8 °F 65% 30.23 in 10.0 mi East 4.6 mph - N/A   Clear
11:15 AM 35.6 °F 32.8 °F 24.8 °F 65% 30.22 in 10.0 mi ESE 3.5 mph - N/A   Clear
11:35 AM 37.4 °F 33.8 °F 24.8 °F 60% 30.20 in 10.0 mi NE 4.6 mph - N/A   Clear
11:55 AM 37.4 °F 34.9 °F 24.8 °F 60% 30.19 in 10.0 mi NE 3.5 mph - N/A   Clear
12:15 PM 39.2 °F 37.0 °F 24.8 °F 56% 30.17 in 10.0 mi East 3.5 mph - N/A   Clear
12:35 PM 41.0 °F 37.1 °F 26.6 °F 57% 30.16 in 10.0 mi ESE 5.8 mph - N/A   Clear
12:55 PM 41.0 °F 38.0 °F 24.8 °F 53% 30.15 in 10.0 mi ENE 4.6 mph - N/A   Clear
1:15 PM 42.8 °F 39.3 °F 26.6 °F 53% 30.15 in 10.0 mi East 5.8 mph - N/A   Clear
1:35 PM 44.6 °F 42.2 °F 26.6 °F 49% 30.14 in 10.0 mi East 4.6 mph - N/A   Clear
1:55 PM 44.6 °F 40.7 °F 26.6 °F 49% 30.12 in 10.0 mi East 6.9 mph - N/A   Clear
2:15 PM 46.4 °F 44.3 °F 24.8 °F 43% 30.12 in 10.0 mi SE 4.6 mph - N/A   Clear
2:35 PM 44.6 °F 41.4 °F 24.8 °F 46% 30.11 in 10.0 mi ESE 5.8 mph - N/A   Clear
2:55 PM 44.6 °F 43.1 °F 24.8 °F 46% 30.11 in 10.0 mi ESE 3.5 mph - N/A   Clear
3:15 PM 44.6 °F 43.1 °F 26.6 °F 49% 30.11 in 10.0 mi East 3.5 mph - N/A   Clear
3:35 PM 44.6 °F 42.2 °F 24.8 °F 46% 30.11 in 10.0 mi ESE 4.6 mph - N/A   Clear
3:55 PM 42.8 °F 40.1 °F 24.8 °F 49% 30.11 in 10.0 mi ESE 4.6 mph - N/A   Clear
4:15 PM 42.8 °F 41.1 °F 24.8 °F 49% 30.11 in 10.0 mi SE 3.5 mph - N/A   Clear
4:35 PM 39.2 °F - 26.6 °F 61% 30.11 in 10.0 mi Calm Calm - N/A   Clear
4:55 PM 37.4 °F - 28.4 °F 70% 30.10 in 10.0 mi Calm Calm - N/A   Clear
5:15 PM 37.4 °F - 28.4 °F 70% 30.09 in 10.0 mi Calm Calm - N/A   Clear
5:35 PM 35.6 °F - 28.4 °F 75% 30.08 in 10.0 mi Calm Calm - N/A   Clear
5:55 PM 33.8 °F - 26.6 °F 75% 30.08 in 10.0 mi Calm Calm - N/A   Clear
6:15 PM 33.8 °F - 26.6 °F 75% 30.08 in 10.0 mi Calm Calm - N/A   Clear
6:35 PM 32.0 °F - 26.6 °F 80% 30.08 in 10.0 mi Calm Calm - N/A   Clear
6:55 PM 32.0 °F - 24.8 °F 75% 30.08 in 10.0 mi Calm Calm - N/A   Clear
7:15 PM 32.0 °F - 28.4 °F 87% 30.07 in 10.0 mi Calm Calm - N/A   Clear
7:35 PM 30.2 °F - 28.4 °F 93% 30.07 in 10.0 mi Calm Calm - N/A   Clear
7:55 PM 30.2 °F - 26.6 °F 86% 30.07 in 10.0 mi Calm Calm - N/A   Clear
8:15 PM 32.0 °F - 26.6 °F 80% 30.07 in 10.0 mi Calm Calm - N/A   Partly Cloudy
8:35 PM 33.8 °F - 26.6 °F 75% 30.07 in 10.0 mi Calm Calm - N/A   Partly Cloudy
8:55 PM 32.0 °F - 26.6 °F 80% 30.07 in 10.0 mi Calm Calm - N/A   Mostly Cloudy
9:35 PM 33.8 °F - 28.4 °F 81% 30.07 in 10.0 mi Calm Calm - N/A   Overcast
9:55 PM 33.8 °F - 28.4 °F 81% 30.06 in 10.0 mi Calm Calm - N/A   Overcast
10:15 PM 33.8 °F - 28.4 °F 81% 30.05 in 10.0 mi Calm Calm - N/A   Overcast
10:35 PM 33.8 °F - 28.4 °F 81% 30.05 in 10.0 mi Calm Calm - N/A   Overcast
10:55 PM 35.6 °F - 30.2 °F 81% 30.05 in 10.0 mi Calm Calm - N/A   Overcast
11:15 PM 35.6 °F - 30.2 °F 81% 30.05 in 10.0 mi Calm Calm - N/A   Overcast
11:35 PM 35.6 °F - 30.2 °F 81% 30.04 in 10.0 mi Calm Calm - N/A   Overcast
11:55 PM 37.4 °F - 33.8 °F 87% 30.04 in 10.0 mi Calm Calm - N/A   Overcast